Regional Weather Roundup
Issued by NWS Bismarck, ND

Home | Current Version | Previous Version | Text Only | Print | Product List | Glossary On
Versions: 1 2 3 4 5 6 7 8 9 10 11 12 13 14 15 16 17 18 19 20 21 22 23 24 25 26 27 28 29 30 31 32 33 34 35 36 37 38 39 40 41 42 43 44 45 46 47 48 49 50
000
ASUS43 KBIS 071110
RWRBIS

NWR BROADCAST TEXT
NATIONAL WEATHER SERVICE BISMARCK ND
600 AM CDT TUE JUL 07 2015

NOTE: "FAIR" INDICATES FEW OR NO CLOUDS BELOW 12,000 FEET WITH NO
SIGNIFICANT WEATHER AND/OR OBSTRUCTIONS TO VISIBILITY.


CITY           SKY/WX    TMP DP  RH WIND       PRES   REMARKS
WILLISTON      CLEAR     54  49  83 SW3       30.14F
MINOT          CLEAR     49  44  83 CALM      30.15F
MINOT AFB      CLEAR     45  45 100 S2        30.14F
BISMARCK       CLEAR     46  44  93 E3        30.20S
DICKINSON      CLEAR     50  47  89 S10       30.15F FOG
GARRISON         N/A     51  46  83 S5        30.17S
HETTINGER ARPT CLEAR     51  49  92 E8        30.18F FOG
JAMESTOWN      CLEAR     49  46  90 SW3       30.20R
BEACH          PTSUNNY   54  54 100 SE8       30.15F FOG
CROSBY         FAIR      50  50 100 S9        30.14F
HARVEY         FAIR      43  43 100 CALM      30.19S
HAZEN          FAIR      41  41 100 CALM      30.19S FOG
LINTON         FAIR      45  45 100 E6        30.20S FOG
MANDAN         FAIR      48  48 100 E3        30.20S
OAKES            N/A     46  46 100 W3        30.21R FOG
STANLEY        FAIR      46  46 100 S3        30.17F
$$

CITY           SKY/WX    TMP DP  RH WIND       PRES   REMARKS
GRAND FORKS    CLEAR     44  42  93 W6        30.17S
GRAND FORKS AF CLEAR     43  41  94 W3        30.17S
DEVILS LAKE    CLEAR     55  46  71 SW14      30.17S
FARGO          CLEAR     42  39  89 CALM      30.19R
CANDO          FAIR      45  45 100 SW7       30.18S
CAVALIER       FAIR      50  45  81 W7        30.16S
GRAFTON        FAIR      48  48 100 W6        30.17S
GWINNER          N/A     46  45  93 W5        30.21R
LANGDON        FAIR      41  41 100 SW6       30.18S
ROLLA          FAIR      46  46 100 SW8       30.18S
WALHALLA       FAIR      50  50 100 MISG      30.16S
$$

CITY           SKY/WX    TMP DP  RH WIND       PRES   REMARKS
ABERDEEN       CLEAR     49  47  93 CALM      30.21R
MOBRIDGE       CLEAR     56  52  86 E8        30.17S
BUFFALO          N/A     55  50  83 E6        30.10F
RAPID CITY     PTCLDY    54  53  97 SE3       30.17S FOG
GLASGOW        PTCLDY    55  48  77 E10       30.06F
SIDNEY         PTCLDY    54  50  87 CALM      30.13F
WOLF POINT     PTCLDY    56  51  84 E6        30.09F HAZE
GLENDIVE       PTCLDY    54  50  87 CALM      30.13F
MILES CITY     CLEAR     55  49  80 S3        30.09F
BAKER          CLEAR     51  49  92 E8        30.15F FOG
$$

CITY           SKY/WX    TMP DP  RH WIND       PRES   REMARKS
BILLINGS       PTCLDY    55  50  83 N3        30.10F
GREAT FALLS    CLEAR     51  47  86 SW6       30.06S
REGINA         CLOUDY    48  45  87 SE7       30.08F
ESTEVAN        PTCLDY    46  45  93 S9        30.13F
$$




USA.gov is the U.S. government's official web portal to all federal, state and local government web resources and services.